{"data":{"norad_id":53140,"epoch":"2026-05-24T20:09:11.282688Z","epoch_age_seconds":85520,"freshness":"FRESH","line1":"1 53140U 22083J   26144.83971392  .00001457  00000+0  10965-3 0  9997","line2":"2 53140  53.2136 192.2686 0001496  95.2383 264.8780 15.08827197212715","mean_motion":15.08827197,"eccentricity":0.0001496,"inclination_deg":53.2136,"raan_deg":192.2686,"arg_perigee_deg":95.2383,"mean_anomaly_deg":264.878,"bstar":0.00010965,"rev_number":21271,"period_min":95.438364503447,"perigee_km":538.74760212928,"apogee_km":540.81744365053,"semimajor_km":6917.9195228899,"source":"CELESTRAK","updated_at":"2026-05-25T13:38:17.317180Z"}}